User: anonymous   Login
Location: Caltech
(34.1382°N, 118.1253°W)
Time: 13:35:52
(UTC-08:00)
Language:

Cosmos 1125 Rocket - Orbit

View from above orbital plane
View from above orbital plane
View from above satellite
View from above satellite

Ground track
Ground track

The orbit data is extracted from the following two-line orbital elements,

1 11511U 79078B   15029.46980069  .00000272  00000-0  10131-3 0    24
2 11511 074.0376 113.6340 0016156 214.7677 220.4096 14.36550748853731
Epoch (UTC): 29 January 2015 11:16:30
Eccentricity: 0.0016156
inclination: 74.0376°
perigee height: 758 km
apogee height: 781 km
right ascension of ascending node: 113.6340°
argument of perigee: 214.7677°
revolutions per day: 14.36550748
mean anomaly at epoch: 220.4096°
orbit number at epoch: 85373

The dashed part of the orbit path shows where the satellite is in the earth's shadow,  

DLR